AL7BX-WX Weather Reports


time (UTC)temp
F
wind
direction
speed
knots
gust
knots
rain 1hr
in
rain 24hr
in
rain mn
in
humidity
%
barometer
mb
20260507150903 56 357 1.7 6.1 0.00 0.00 0.00 41
20260507150214 55 348 0.9 2.6 0.00 0.00 0.00 39
20260507145403 53 348 0.9 2.6 0.00 0.00 0.00 41
20260507144503 52 348 0.9 3.5 0.00 0.00 0.00 44
20260507143603 49 348 0.9 3.5 0.00 0.00 0.00 46
20260507142703 48 348 1.7 3.5 0.00 0.00 0.00 48
20260507141803 45 344 0.9 5.2 0.00 0.00 0.00 49
20260507140903 42 306 1.7 5.2 0.00 0.00 0.00 55
20260507140003 41 297 1.7 3.5 0.00 0.00 0.00 61
20260507135403 40 297 1.7 3.5 0.00 0.00 0.00 63
20260507134503 38 300 0.9 2.6 0.00 0.00 0.00 66
20260507133603 37 303 0.0 1.7 0.00 0.00 0.00 63
20260507132913 37 297 0.0 1.7 0.00 0.00 0.00 63
20260507131803 36 0 0.0 0.0 0.00 0.00 0.00 60
20260507130903 36 0 0.0 0.0 0.00 0.00 0.00 58
20260507130003 36 0 0.0 0.0 0.00 0.00 0.00 60
20260507125403 35 0 0.0 0.0 0.00 0.00 0.00 59
20260507124503 35 297 0.0 0.9 0.00 0.00 0.00 58
20260507123603 35 297 0.0 1.7 0.00 0.00 0.00 57
20260507122705 35 297 0.0 0.9 0.00 0.00 0.00 57
20260507121803 35 0 0.0 0.0 0.00 0.00 0.00 56
20260507120903 35 297 0.0 0.9 0.00 0.00 0.00 56
20260507120004 35 297 0.0 1.7 0.00 0.00 0.00 57
20260507115403 35 297 0.0 1.7 0.00 0.00 0.00 57
20260507114503 35 0 0.0 0.0 0.00 0.00 0.00 57
20260507113603 35 297 0.0 0.9 0.00 0.00 0.00 56
20260507112703 36 297 0.9 2.6 0.00 0.00 0.00 55
20260507111803 36 297 0.0 1.7 0.00 0.00 0.00 55
20260507110903 36 0 0.0 0.0 0.00 0.00 0.00 53
20260507110003 37 0 0.0 0.0 0.00 0.00 0.00 52
20260507105403 37 297 0.0 1.7 0.00 0.00 0.00 52
20260507104503 38 297 0.9 2.6 0.00 0.00 0.00 50
20260507103813 38 296 1.7 2.6 0.00 0.00 0.00 50
20260507102703 37 296 1.7 2.6 0.00 0.00 0.00 49
20260507101803 37 296 0.0 1.7 0.00 0.00 0.00 49
20260507100903 38 296 0.0 0.9 0.00 0.00 0.00 48
20260507100003 37 296 0.0 0.9 0.00 0.00 0.00 49
20260507095403 37 296 0.0 0.9 0.00 0.00 0.00 49
20260507094504 37 296 0.0 2.6 0.00 0.00 0.00 51
20260507093603 36 297 0.0 1.7 0.00 0.00 0.00 55
20260507092914 36 297 0.0 0.9 0.00 0.00 0.00 54
20260507091803 37 359 0.9 3.5 0.00 0.00 0.00 48
20260507090903 38 36 0.0 0.9 0.00 0.00 0.00 51
20260507090214 39 36 0.0 1.7 0.00 0.00 0.00 51
20260507085403 39 36 0.9 2.6 0.00 0.00 0.00 49
20260507084503 38 36 0.0 0.9 0.00 0.00 0.00 49
20260507083603 38 52 1.7 3.5 0.00 0.00 0.00 52
20260507082703 38 59 1.7 2.6 0.00 0.00 0.00 51
20260507081803 39 59 0.9 1.7 0.00 0.00 0.00 47
20260507080903 39 59 0.9 2.6 0.00 0.00 0.00 48
20260507080003 39 59 0.9 2.6 0.00 0.00 0.00 47
20260507075403 39 61 0.9 2.6 0.00 0.00 0.00 46
20260507074503 40 55 1.7 3.5 0.00 0.00 0.00 45
20260507073603 41 34 0.9 3.5 0.00 0.00 0.00 44
20260507072703 43 2 3.5 6.1 0.00 0.00 0.00 41
20260507072012 43 354 4.3 6.1 0.00 0.00 0.00 42
20260507070903 44 341 3.5 6.1 0.00 0.00 0.00 40
20260507070213 44 342 3.5 5.2 0.00 0.00 0.00 42
20260507065403 43 27 2.6 4.3 0.00 0.00 0.00 43
20260507064503 41 52 1.7 3.5 0.00 0.00 0.00 46
20260507063813 41 67 0.9 3.5 0.00 0.00 0.00 46
20260507062703 42 91 0.9 1.7 0.00 0.00 0.00 44
20260507061803 44 90 0.0 2.6 0.00 0.00 0.00 44
20260507060903 45 90 0.0 2.6 0.00 0.00 0.00 39
20260507060005 48 90 0.9 3.5 0.00 0.00 0.00 40
20260507055403 49 90 0.9 3.5 0.00 0.00 0.00 37
20260507054503 49 89 1.7 5.2 0.00 0.00 0.00 34
20260507053813 46 87 1.7 6.1 0.00 0.00 0.00 37
20260507052703 44 39 0.9 2.6 0.00 0.00 0.00 41
20260507051803 45 47 0.9 2.6 0.00 0.00 0.00 40
20260507050904 46 0 0.0 0.0 0.00 0.00 0.00 37
20260507050003 47 47 0.0 1.7 0.00 0.00 0.00 36
20260507045403 47 46 0.0 0.9 0.00 0.00 0.00 35
20260507044503 48 46 0.0 0.9 0.00 0.00 0.00 35
20260507043603 49 47 0.0 2.6 0.00 0.00 0.00 35
20260507042703 49 47 0.0 2.6 0.00 0.00 0.00 35
20260507041803 49 33 0.9 2.6 0.00 0.00 0.00 35
20260507040903 49 38 0.9 2.6 0.00 0.00 0.00 34
20260507040004 50 38 0.9 3.5 0.00 0.00 0.00 33
20260507035403 50 41 0.9 3.5 0.00 0.00 0.00 33
20260507034503 49 41 0.9 3.5 0.00 0.00 0.00 33
20260507033603 49 27 0.0 2.6 0.00 0.00 0.00 33
20260507032703 50 0 0.0 0.0 0.00 0.00 0.00 32
20260507031803 52 0 0.0 0.0 0.00 0.00 0.00 32
20260507030903 54 10 2.6 8.7 0.00 0.00 0.00 29
20260507030003 55 360 3.5 9.6 0.00 0.00 0.00 28
20260507025403 55 356 3.5 8.7 0.00 0.00 0.00 29
20260507024503 56 348 5.2 9.6 0.00 0.00 0.00 28
20260507023603 56 352 4.3 10.4 0.00 0.00 0.00 28
20260507022703 57 352 5.2 10.4 0.00 0.00 0.00 27
20260507021803 58 348 5.2 11.3 0.00 0.00 0.00 26
20260507020903 58 349 5.2 12.2 0.00 0.00 0.00 26
20260507020003 59 351 5.2 11.3 0.00 0.00 0.00 26
20260507015403 59 354 6.1 11.3 0.00 0.00 0.00 25
20260507014503 60 357 7.0 13.9 0.00 0.00 0.00 25
20260507013603 60 360 7.0 12.2 0.00 0.00 0.00 26
20260507012703 61 353 7.0 12.2 0.00 0.00 0.00 27
20260507011803 61 356 7.0 14.8 0.00 0.00 0.00 28
20260507010903 62 2 8.7 16.5 0.00 0.00 0.00 26
20260507010003 62 358 7.8 13.9 0.00 0.00 0.00 26
20260507005403 62 354 7.0 13.9 0.00 0.00 0.00 26
20260507004503 63 352 7.8 14.8 0.00 0.00 0.00 27
20260507003603 63 352 7.8 13.0 0.00 0.00 0.00 26
20260507002703 63 350 8.7 15.6 0.00 0.00 0.00 27
20260507001803 63 359 7.0 12.2 0.00 0.00 0.00 26
20260507000905 63 354 8.7 16.5 0.00 0.00 0.00 28
20260507000003 63 355 8.7 15.6 0.00 0.00 0.00 26
20260506235403 64 340 9.6 15.6 0.00 0.00 0.00 27
20260506234503 64 345 9.6 20.9 0.00 0.00 0.00 28
20260506233603 64 335 8.7 20.9 0.00 0.00 0.00 28
20260506232914 63 351 8.7 14.8 0.00 0.00 0.00 27
20260506231803 64 350 8.7 15.6 0.00 0.00 0.00 25
20260506230903 63 353 9.6 15.6 0.00 0.00 0.00 26
20260506230003 64 336 11.3 16.5 0.00 0.00 0.00 28
20260506225403 64 338 10.4 18.2 0.00 0.00 0.00 29
20260506224503 63 355 10.4 18.2 0.00 0.00 0.00 30
20260506223603 64 358 9.6 16.5 0.00 0.00 0.00 29
20260506222703 64 345 10.4 18.2 0.00 0.00 0.00 28
20260506221803 64 343 9.6 18.2 0.00 0.00 0.00 31
20260506220903 64 351 10.4 18.2 0.00 0.00 0.00 30
20260506220003 64 332 12.2 19.1 0.00 0.00 0.00 30
20260506215403 64 340 10.4 19.1 0.00 0.00 0.00 33
20260506214503 63 10 8.7 20.9 0.00 0.00 0.00 31
20260506213814 64 355 8.7 16.5 0.00 0.00 0.00 32
20260506212703 63 342 9.6 17.4 0.00 0.00 0.00 37
20260506212013 63 352 8.7 19.1 0.00 0.00 0.00 35
20260506211114 63 343 9.6 18.2 0.00 0.00 0.00 34
20260506210213 62 3 9.6 18.2 0.00 0.00 0.00 34
20260506205613 62 357 10.4 19.1 0.00 0.00 0.00 33
20260506204503 63 341 10.4 18.2 0.00 0.00 0.00 37
20260506203603 62 353 10.4 21.7 0.00 0.00 0.00 35
20260506202703 62 338 12.2 20.0 0.00 0.00 0.00 36
20260506201803 62 335 11.3 20.0 0.00 0.00 0.00 40
20260506200903 62 340 11.3 20.0 0.00 0.00 0.00 40
20260506200004 61 345 10.4 19.1 0.00 0.00 0.00 39
20260506195404 61 338 11.3 19.1 0.00 0.00 0.00 38
20260506194503 61 331 12.2 22.6 0.00 0.00 0.00 40
20260506193603 61 347 10.4 18.2 0.00 0.00 0.00 41
20260506192912 61 346 10.4 19.1 0.00 0.00 0.00 45
20260506191803 61 341 11.3 18.2 0.00 0.00 0.00 43
20260506190903 60 349 10.4 18.2 0.00 0.00 0.00 44
20260506190004 61 345 8.7 18.2 0.00 0.00 0.00 45
20260506185403 61 340 7.8 16.5 0.00 0.00 0.00 43
20260506184503 61 18 7.0 15.6 0.00 0.00 0.00 46
20260506183603 60 343 10.4 16.5 0.00 0.00 0.00 46
20260506182704 60 343 7.8 16.5 0.00 0.00 0.00 47
20260506181803 60 353 8.7 17.4 0.00 0.00 0.00 48
20260506181113 60 359 7.0 14.8 0.00 0.00 0.00 48
20260506180214 60 357 7.8 15.6 0.00 0.00 0.00 49
20260506175403 59 353 9.6 17.4 0.00 0.00 0.00 50
20260506174503 59 2 7.8 16.5 0.00 0.00 0.00 49
20260506173603 59 360 7.8 14.8 0.00 0.00 0.00 47
20260506172703 59 345 5.2 12.2 0.00 0.00 0.00 47
20260506171803 59 333 7.0 13.0 0.00 0.00 0.00 52
20260506170903 58 348 7.0 11.3 0.00 0.00 0.00 50
20260506170214 58 348 6.1 11.3 0.00 0.00 0.00 50
20260506165403 58 354 7.0 14.8 0.00 0.00 0.00 48
20260506164503 58 12 6.1 12.2 0.00 0.00 0.00 47
20260506163603 58 356 6.1 15.6 0.00 0.00 0.00 48
20260506162913 58 349 4.3 10.4 0.00 0.00 0.00 47
20260506162013 57 15 3.5 7.8 0.00 0.00 0.00 48
20260506160903 57 327 2.6 6.1 0.00 0.00 0.00 48
20260506160003 56 319 0.9 4.3 0.00 0.00 0.00 47
20260506155403 55 320 0.9 2.6 0.00 0.00 0.00 48
20260506154503 54 319 0.9 2.6 0.00 0.00 0.00 49
20260506153603 53 319 1.7 3.5 0.00 0.00 0.00 48
20260506152703 53 345 1.7 4.3 0.00 0.00 0.00 48
20260506151803 53 356 1.7 3.5 0.00 0.00 0.00 49